Time,TemperatureF,DewpointF,PressureIn,WindDirection,WindDirectionDegrees,WindSpeedMPH,WindSpeedGustMPH,Humidity,HourlyPrecipIn,Conditions,Clouds,dailyrainin,SoftwareType,DateUTC
2013-01-06 01:12:00,29.0,23.6,30.20,North,356,1.0,1.0,80,0.00,,---,0.00,VWS V14.01,2013-01-06 06:12:00,
2013-01-06 01:27:00,29.4,23.7,30.21,North,356,0.0,1.0,79,0.00,,---,0.00,VWS V14.01,2013-01-06 06:27:00,
2013-01-06 01:42:00,29.6,24.2,30.20,North,355,0.0,1.0,80,0.00,,---,0.00,VWS V14.01,2013-01-06 06:42:00,
2013-01-06 01:57:00,29.7,24.0,30.19,North,356,0.0,1.0,79,0.00,,---,0.00,VWS V14.01,2013-01-06 06:57:00,
2013-01-06 02:12:00,30.0,24.0,30.18,North,356,2.0,2.0,78,0.00,,---,0.00,VWS V14.01,2013-01-06 07:12:00,
2013-01-06 02:28:00,30.0,24.3,30.20,North,357,0.0,2.0,79,0.00,,---,0.00,VWS V14.01,2013-01-06 07:28:00,
2013-01-06 02:42:00,29.9,23.9,30.18,North,356,0.0,1.0,78,0.00,,---,0.00,VWS V14.01,2013-01-06 07:42:00,
2013-01-06 02:57:00,30.4,24.1,30.17,North,355,0.0,1.0,77,0.00,,---,0.00,VWS V14.01,2013-01-06 07:57:00,
2013-01-06 03:12:00,30.4,24.4,30.18,North,356,0.0,1.0,78,0.00,,---,0.00,VWS V14.01,2013-01-06 08:12:00,
2013-01-06 03:27:00,30.0,24.3,30.17,North,355,0.0,1.0,79,0.00,,---,0.00,VWS V14.01,2013-01-06 08:27:00,
2013-01-06 03:42:00,30.0,24.0,30.16,North,355,0.0,1.0,78,0.00,,---,0.00,VWS V14.01,2013-01-06 08:42:00,
2013-01-06 03:57:00,29.9,24.2,30.15,North,356,0.0,0.0,79,0.00,,---,0.00,VWS V14.01,2013-01-06 08:57:00,
2013-01-06 04:12:00,29.8,24.1,30.14,North,355,0.0,0.0,79,0.00,,---,0.00,VWS V14.01,2013-01-06 09:12:00,
2013-01-06 04:27:00,29.7,24.3,30.13,North,356,0.0,0.0,80,0.00,,---,0.00,VWS V14.01,2013-01-06 09:27:00,
2013-01-06 04:42:00,29.8,24.1,30.12,North,355,1.0,1.0,79,0.00,,---,0.00,VWS V14.01,2013-01-06 09:42:00,
2013-01-06 04:57:00,30.0,24.0,30.12,North,355,0.0,2.0,78,0.00,,---,0.00,VWS V14.01,2013-01-06 09:57:00,
2013-01-06 05:12:00,30.1,24.4,30.11,North,356,0.0,1.0,79,0.00,,---,0.00,VWS V14.01,2013-01-06 10:12:00,
2013-01-06 05:27:00,30.1,24.1,30.11,North,356,0.0,1.0,78,0.00,,---,0.00,VWS V14.01,2013-01-06 10:27:00,
2013-01-06 05:42:00,30.2,24.2,30.10,North,357,0.0,1.0,78,0.00,,---,0.00,VWS V14.01,2013-01-06 10:42:00,
2013-01-06 05:57:00,30.4,24.7,30.10,North,356,0.0,3.0,79,0.00,,---,0.00,VWS V14.01,2013-01-06 10:57:00,
2013-01-06 06:12:00,30.6,25.5,30.11,North,356,0.0,2.0,81,0.00,,---,0.00,VWS V14.01,2013-01-06 11:12:00,
2013-01-06 06:27:00,30.7,25.9,30.11,North,355,1.0,2.0,82,0.00,,---,0.00,VWS V14.01,2013-01-06 11:27:00,
2013-01-06 06:42:00,30.7,26.2,30.11,North,355,0.0,2.0,83,0.00,,---,0.00,VWS V14.01,2013-01-06 11:42:00,
2013-01-06 06:57:00,30.6,26.4,30.11,North,356,1.0,2.0,84,0.00,,---,0.00,VWS V14.01,2013-01-06 11:57:00,
2013-01-06 07:12:00,30.7,26.5,30.11,North,355,0.0,3.0,84,0.00,,---,0.00,VWS V14.01,2013-01-06 12:12:00,
2013-01-06 07:27:00,30.7,26.5,30.10,North,356,0.0,2.0,84,0.00,,---,0.00,VWS V14.01,2013-01-06 12:27:00,
2013-01-06 07:42:00,30.9,26.9,30.11,North,357,1.0,3.0,85,0.00,,---,0.00,VWS V14.01,2013-01-06 12:42:00,
2013-01-06 07:57:00,31.1,27.4,30.10,North,356,0.0,2.0,86,0.00,,---,0.00,VWS V14.01,2013-01-06 12:57:00,
2013-01-06 08:12:00,31.3,27.6,30.10,North,355,0.0,1.0,86,0.00,,---,0.00,VWS V14.01,2013-01-06 13:12:00,
2013-01-06 08:27:00,31.6,28.2,30.10,North,355,0.0,2.0,87,0.00,,---,0.00,VWS V14.01,2013-01-06 13:27:00,
2013-01-06 08:42:00,31.9,28.5,30.09,North,356,1.0,3.0,87,0.00,,---,0.00,VWS V14.01,2013-01-06 13:42:00,
2013-01-06 08:57:00,32.1,28.7,30.09,North,355,0.0,2.0,87,0.00,,---,0.00,VWS V14.01,2013-01-06 13:57:00,
2013-01-06 09:12:00,32.4,29.0,30.09,North,355,1.0,3.0,87,0.00,,---,0.00,VWS V14.01,2013-01-06 14:12:00,
2013-01-06 09:27:00,32.8,29.1,30.09,North,356,0.0,3.0,86,0.00,,---,0.00,VWS V14.01,2013-01-06 14:27:00,
2013-01-06 09:42:00,32.9,29.2,30.09,North,356,0.0,1.0,86,0.00,,---,0.00,VWS V14.01,2013-01-06 14:42:00,
2013-01-06 09:57:00,33.1,29.4,30.09,North,356,0.0,1.0,86,0.00,,---,0.00,VWS V14.01,2013-01-06 14:57:00,
2013-01-06 10:12:00,33.6,29.6,30.08,North,356,1.0,2.0,85,0.00,,---,0.00,VWS V14.01,2013-01-06 15:12:00,
2013-01-06 10:27:00,34.5,29.9,30.08,North,357,0.0,3.0,83,0.00,,---,0.00,VWS V14.01,2013-01-06 15:27:00,
2013-01-06 10:42:00,35.3,30.1,30.07,North,356,0.0,4.0,81,0.00,,---,0.00,VWS V14.01,2013-01-06 15:42:00,
2013-01-06 11:00:00,36.3,30.4,30.06,North,356,2.0,4.0,79,0.00,,---,0.00,VWS V14.01,2013-01-06 16:00:00,
2013-01-06 11:12:00,37.5,30.6,30.04,North,357,1.0,2.0,76,0.00,,---,0.00,VWS V14.01,2013-01-06 16:12:00,
2013-01-06 11:27:00,38.8,30.6,30.04,North,355,1.0,2.0,72,0.00,,---,0.00,VWS V14.01,2013-01-06 16:27:00,
2013-01-06 11:42:00,39.8,30.1,30.03,North,357,1.0,2.0,68,0.00,,---,0.00,VWS V14.01,2013-01-06 16:42:00,
2013-01-06 11:57:00,40.6,29.8,30.02,North,356,1.0,7.0,65,0.00,,---,0.00,VWS V14.01,2013-01-06 16:57:00,
2013-01-06 12:12:00,41.0,29.0,30.00,North,356,2.0,7.0,62,0.00,,---,0.00,VWS V14.01,2013-01-06 17:12:00,
2013-01-06 12:28:00,41.6,29.2,30.00,North,356,2.0,9.0,61,0.00,,---,0.00,VWS V14.01,2013-01-06 17:28:00,
2013-01-06 12:42:00,42.1,29.2,29.99,North,355,2.0,6.0,60,0.00,,---,0.00,VWS V14.01,2013-01-06 17:42:00,
2013-01-06 12:57:00,42.8,29.5,29.99,North,357,2.0,5.0,59,0.00,,---,0.00,VWS V14.01,2013-01-06 17:57:00,
2013-01-06 13:00:00,42.8,29.5,29.99,North,357,2.0,5.0,59,0.00,,---,0.00,VWS V14.01,2013-01-06 18:00:00,
2013-01-06 13:12:00,43.2,29.4,29.99,North,356,2.0,4.0,58,0.00,,---,0.00,VWS V14.01,2013-01-06 18:12:00,
2013-01-06 13:15:00,43.2,29.4,29.99,North,356,2.0,4.0,58,0.00,,---,0.00,VWS V14.01,2013-01-06 18:15:00,
2013-01-06 13:27:00,43.5,30.1,29.98,North,356,1.0,4.0,59,0.00,,---,0.00,VWS V14.01,2013-01-06 18:27:00,
2013-01-06 13:30:00,43.5,30.1,29.98,North,356,1.0,4.0,59,0.00,,---,0.00,VWS V14.01,2013-01-06 18:30:00,
2013-01-06 13:42:00,43.6,29.8,29.98,North,357,0.0,4.0,58,0.00,,---,0.00,VWS V14.01,2013-01-06 18:42:00,
2013-01-06 13:45:00,43.6,29.8,29.98,North,357,0.0,4.0,58,0.00,,---,0.00,VWS V14.01,2013-01-06 18:45:00,
2013-01-06 13:57:00,43.5,29.7,29.97,North,356,1.0,6.0,58,0.00,,---,0.00,VWS V14.01,2013-01-06 18:57:00,
2013-01-06 14:00:00,43.5,29.7,29.97,North,356,1.0,6.0,58,0.00,,---,0.00,VWS V14.01,2013-01-06 19:00:00,
2013-01-06 14:12:00,43.7,29.5,29.96,North,356,0.0,5.0,57,0.00,,---,0.00,VWS V14.01,2013-01-06 19:12:00,
2013-01-06 14:15:00,43.7,29.5,29.96,North,356,0.0,5.0,57,0.00,,---,0.00,VWS V14.01,2013-01-06 19:15:00,
2013-01-06 14:27:00,43.7,29.5,29.96,North,356,1.0,4.0,57,0.00,,---,0.00,VWS V14.01,2013-01-06 19:27:00,
2013-01-06 14:30:00,43.7,29.5,29.96,North,356,1.0,4.0,57,0.00,,---,0.00,VWS V14.01,2013-01-06 19:30:00,
2013-01-06 14:42:00,43.8,29.1,29.96,North,357,3.0,6.0,56,0.00,,---,0.00,VWS V14.01,2013-01-06 19:42:00,
2013-01-06 14:45:00,43.8,29.1,29.96,North,357,3.0,6.0,56,0.00,,---,0.00,VWS V14.01,2013-01-06 19:45:00,
2013-01-06 14:57:00,43.9,28.8,29.96,North,357,5.0,5.0,55,0.00,,---,0.00,VWS V14.01,2013-01-06 19:57:00,
2013-01-06 15:00:00,43.9,28.8,29.96,North,357,5.0,5.0,55,0.00,,---,0.00,VWS V14.01,2013-01-06 20:00:00,
2013-01-06 15:12:00,43.9,28.8,29.96,North,356,1.0,8.0,55,0.00,,---,0.00,VWS V14.01,2013-01-06 20:12:00,
2013-01-06 15:15:00,43.9,28.8,29.96,North,356,1.0,8.0,55,0.00,,---,0.00,VWS V14.01,2013-01-06 20:15:00,
2013-01-06 15:27:00,43.7,29.0,29.96,North,357,0.0,5.0,56,0.00,,---,0.00,VWS V14.01,2013-01-06 20:27:00,
2013-01-06 15:30:00,43.7,29.0,29.96,North,357,0.0,5.0,56,0.00,,---,0.00,VWS V14.01,2013-01-06 20:30:00,
2013-01-06 15:45:00,42.9,28.7,29.96,North,357,3.0,4.0,57,0.00,,---,0.00,VWS V14.01,2013-01-06 20:45:00,
2013-01-06 15:48:00,42.9,28.7,29.96,North,357,3.0,4.0,57,0.00,,---,0.00,VWS V14.01,2013-01-06 20:48:00,
2013-01-06 15:57:00,42.2,28.5,29.96,North,357,1.0,5.0,58,0.00,,---,0.00,VWS V14.01,2013-01-06 20:57:00,
2013-01-06 16:00:00,42.2,28.5,29.96,North,357,1.0,5.0,58,0.00,,---,0.00,VWS V14.01,2013-01-06 21:00:00,
2013-01-06 16:12:00,41.5,28.3,29.96,North,357,1.0,3.0,59,0.00,,---,0.00,VWS V14.01,2013-01-06 21:12:00,
2013-01-06 16:15:00,41.5,28.3,29.96,North,357,1.0,3.0,59,0.00,,---,0.00,VWS V14.01,2013-01-06 21:15:00,
2013-01-06 16:27:00,41.0,27.8,29.97,North,357,2.0,8.0,59,0.00,,---,0.00,VWS V14.01,2013-01-06 21:27:00,
2013-01-06 16:30:00,41.0,27.8,29.97,North,357,2.0,8.0,59,0.00,,---,0.00,VWS V14.01,2013-01-06 21:30:00,
2013-01-06 16:44:00,40.7,28.3,29.97,North,357,0.0,4.0,61,0.00,,---,0.00,VWS V14.01,2013-01-06 21:44:00,
2013-01-06 16:45:00,40.7,28.3,29.97,North,357,0.0,4.0,61,0.00,,---,0.00,VWS V14.01,2013-01-06 21:45:00,
2013-01-06 16:57:00,39.9,28.0,29.97,North,357,3.0,3.0,62,0.00,,---,0.00,VWS V14.01,2013-01-06 21:57:00,
2013-01-06 17:00:00,39.9,28.0,29.97,North,357,3.0,3.0,62,0.00,,---,0.00,VWS V14.01,2013-01-06 22:00:00,
2013-01-06 17:12:00,40.2,28.2,29.98,North,356,1.0,6.0,62,0.00,,---,0.00,VWS V14.01,2013-01-06 22:12:00,
2013-01-06 17:15:00,40.2,28.2,29.98,North,356,1.0,6.0,62,0.00,,---,0.00,VWS V14.01,2013-01-06 22:15:00,
2013-01-06 17:27:00,39.6,28.1,29.98,North,357,0.0,5.0,63,0.00,,---,0.00,VWS V14.01,2013-01-06 22:27:00,
2013-01-06 17:30:00,39.6,28.1,29.98,North,357,0.0,5.0,63,0.00,,---,0.00,VWS V14.01,2013-01-06 22:30:00,
2013-01-06 17:42:00,39.1,28.0,29.98,North,356,1.0,3.0,64,0.00,,---,0.00,VWS V14.01,2013-01-06 22:42:00,
2013-01-06 17:45:00,39.1,28.0,29.98,North,356,1.0,3.0,64,0.00,,---,0.00,VWS V14.01,2013-01-06 22:45:00,
2013-01-06 17:57:00,38.8,27.7,29.98,North,356,1.0,4.0,64,0.00,,---,0.00,VWS V14.01,2013-01-06 22:57:00,
2013-01-06 18:00:00,38.8,27.7,29.98,North,356,1.0,4.0,64,0.00,,---,0.00,VWS V14.01,2013-01-06 23:00:00,
2013-01-06 20:00:00,38.4,28.0,30.01,North,357,1.0,1.0,66,0.00,,---,0.00,VWS V14.01,2013-01-07 01:00:00,
2013-01-06 20:27:00,38.4,28.0,30.00,North,357,2.0,4.0,66,0.00,,---,0.00,VWS V14.01,2013-01-07 01:27:00,
2013-01-06 20:30:00,38.4,28.0,30.00,North,357,2.0,4.0,66,0.00,,---,0.00,VWS V14.01,2013-01-07 01:30:00,
2013-01-06 20:42:00,38.3,28.0,30.00,North,357,1.0,4.0,66,0.00,,---,0.00,VWS V14.01,2013-01-07 01:42:00,
2013-01-06 20:45:00,38.3,28.0,30.00,North,357,1.0,4.0,66,0.00,,---,0.00,VWS V14.01,2013-01-07 01:45:00,
2013-01-06 20:57:00,38.1,28.1,30.00,North,357,1.0,4.0,67,0.00,,---,0.00,VWS V14.01,2013-01-07 01:57:00,
2013-01-06 21:00:00,38.1,28.1,30.00,North,357,1.0,4.0,67,0.00,,---,0.00,VWS V14.01,2013-01-07 02:00:00,
2013-01-06 22:57:00,36.8,28.6,30.02,North,357,2.0,4.0,72,0.00,,---,0.00,VWS V14.01,2013-01-07 03:57:00,
2013-01-06 23:00:00,36.8,28.6,30.02,North,357,2.0,4.0,72,0.00,,---,0.00,VWS V14.01,2013-01-07 04:00:00,
2013-01-06 23:15:00,36.8,29.0,30.03,North,0,1.0,3.0,73,0.00,,---,0.00,VWS V14.01,2013-01-07 04:15:00,
2013-01-06 23:30:00,36.6,28.8,30.03,North,0,1.0,3.0,73,0.00,,---,0.00,VWS V14.01,2013-01-07 04:30:00,
2013-01-06 23:45:00,36.4,28.9,30.03,North,0,1.0,5.0,74,0.00,,---,0.00,VWS V14.01,2013-01-07 04:45:00,